FW7063 Weather Reports


time (UTC)temp
C
wind
direction
speed
KPH
gust
KPH
rain 1hr
cm
rain 24hr
cm
rain mn
cm
humidity
%
barometer
mb
20260505165104 14 104 0.0 0.0 0.00 0.00 0.00 62 1010.5
20260505164604 14 104 0.0 1.6 0.00 0.00 0.00 60 1010.5
20260505164104 14 101 0.0 1.6 0.00 0.00 0.00 60 1010.5
20260505163604 14 101 0.0 1.6 0.00 0.00 0.00 60 1010.5
20260505163103 15 101 0.0 1.6 0.00 0.00 0.00 60 1010.5
20260505162604 15 89 0.0 3.2 0.00 0.00 0.00 60 1010.5
20260505162103 15 88 0.0 1.6 0.00 0.00 0.00 60 1010.5
20260505161603 15 66 0.0 1.6 0.00 0.00 0.00 60 1010.5
20260505161104 15 59 1.6 3.2 0.00 0.00 0.00 59 1010.5
20260505160604 15 87 0.0 1.6 0.00 0.00 0.00 58 1010.5
20260505160104 15 59 1.6 3.2 0.00 0.00 0.00 57 1010.5
20260505153107 15 64 3.2 3.2 0.00 0.00 0.00 57 1010.5
20260505152606 15 70 0.0 3.2 0.00 0.00 0.00 57 1010.8
20260505152104 15 73 1.6 3.2 0.00 0.00 0.00 59 1010.8
20260505151603 15 78 1.6 3.2 0.00 0.00 0.00 58 1010.5
20260505151104 15 73 3.2 3.2 0.00 0.00 0.00 58 1010.8
20260505150605 15 83 1.6 4.8 0.00 0.00 0.00 57 1010.8
20260505150103 15 73 1.6 1.6 0.00 0.00 0.00 57 1010.8
20260505140604 15 83 3.2 8.0 0.00 0.00 0.00 58 1011.2
20260505140113 15 68 1.6 4.8 0.00 0.00 0.00 58 1010.8
20260505130104 15 326 1.6 3.2 0.00 0.00 0.00 61 1011.2
20260505124604 15 111 1.6 11.3 0.00 0.00 0.00 57 1011.2
20260505124104 15 343 1.6 3.2 0.00 0.00 0.00 60 1011.2
20260505123605 15 127 1.6 4.8 0.00 0.00 0.00 61 1011.5
20260505123104 15 347 1.6 4.8 0.00 0.00 0.00 61 1011.2
20260505122606 15 323 4.8 8.0 0.00 0.00 0.00 59 1011.2
20260505122104 15 103 0.0 8.0 0.00 0.00 0.00 58 1011.2
20260505121603 15 82 4.8 8.0 0.00 0.00 0.00 61 1011.2
20260505121104 15 99 1.6 3.2 0.00 0.00 0.00 59 1011.2
20260505120603 15 300 0.0 4.8 0.00 0.00 0.00 59 1011.2
20260505120103 16 75 1.6 3.2 0.00 0.00 0.00 57 1011.2
20260505115604 16 89 4.8 11.3 0.00 0.00 0.00 56 1011.2
20260505115103 16 88 1.6 4.8 0.00 0.00 0.00 58 1011.2
20260505114604 16 174 4.8 9.7 0.00 0.00 0.00 58 1011.2
20260505114103 16 64 6.4 9.7 0.00 0.00 0.00 58 1011.5
20260505113604 16 340 3.2 8.0 0.00 0.00 0.00 61 1011.5
20260505113103 15 102 0.0 4.8 0.00 0.00 0.00 59 1011.5
20260505112604 15 116 4.8 12.9 0.00 0.00 0.00 60 1011.5
20260505112103 15 82 1.6 8.0 0.00 0.00 0.00 59 1011.5
20260505111604 16 120 4.8 4.8 0.00 0.00 0.00 58 1011.5
20260505111103 16 98 1.6 4.8 0.00 0.00 0.00 59 1011.2
20260505110603 16 250 3.2 9.7 0.00 0.00 0.00 60 1011.5
20260505102105 15 341 3.2 12.9 0.00 0.00 0.00 68 1011.5
20260505101605 14 253 3.2 9.7 0.00 0.00 0.00 67 1011.5
20260505101106 14 152 1.6 11.3 0.00 0.00 0.00 68 1011.9
20260505100606 14 348 9.7 12.9 0.00 0.00 0.00 67 1011.9
20260505100106 14 344 9.7 12.9 0.00 0.00 0.00 68 1011.9
20260505095605 14 332 3.2 8.0 0.00 0.00 0.00 67 1011.9
20260505095106 14 175 4.8 14.5 0.00 0.00 0.00 69 1012.2
20260505094606 14 77 1.6 8.0 0.00 0.00 0.00 68 1011.9
20260505094106 14 326 1.6 9.7 0.00 0.00 0.00 68 1012.2
20260505093603 14 83 6.4 14.5 0.00 0.00 0.00 66 1011.9
20260505093105 14 110 4.8 9.7 0.00 0.00 0.00 70 1011.9
20260505092605 13 58 4.8 9.7 0.00 0.00 0.00 70 1011.9
20260505092105 13 55 4.8 11.3 0.00 0.00 0.00 71 1011.9
20260505091606 13 358 3.2 14.5 0.00 0.00 0.00 72 1012.2
20260505091105 13 100 3.2 11.3 0.00 0.00 0.00 71 1011.9
20260505090606 12 21 1.6 4.8 0.00 0.00 0.00 72 1012.2
20260505085616 12 344 4.8 12.9 0.00 0.00 0.00 74 1012.2
20260505085105 12 2 9.7 16.1 0.00 0.00 0.00 74 1012.2
20260505084603 12 19 4.8 14.5 0.00 0.00 0.00 74 1012.5
20260505084105 12 316 11.3 20.9 0.00 0.00 0.00 73 1012.5
20260505083603 12 2 4.8 11.3 0.00 0.00 0.00 74 1012.5
20260505083104 12 161 1.6 8.0 0.00 0.00 0.00 74 1012.2
20260505082604 12 7 4.8 11.3 0.00 0.00 0.00 73 1012.2
20260505082104 12 357 3.2 11.3 0.00 0.00 0.00 73 1012.2
20260505081603 13 337 9.7 17.7 0.00 0.00 0.00 71 1012.2
20260505081103 13 22 6.4 11.3 0.00 0.00 0.00 71 1012.5
20260505080607 13 298 4.8 12.9 0.00 0.00 0.00 73 1012.2
20260505080104 13 323 4.8 12.9 0.00 0.00 0.00 71 1012.2
20260505075603 13 335 6.4 12.9 0.00 0.00 0.00 73 1012.2
20260505075105 13 97 3.2 8.0 0.00 0.00 0.00 74 1011.9
20260505074603 13 290 11.3 16.1 0.00 0.00 0.00 76 1012.2
20260505074104 13 14 3.2 14.5 0.00 0.00 0.00 75 1012.2
20260505073603 12 10 3.2 3.2 0.00 0.00 0.00 77 1012.2
20260505073103 12 52 3.2 8.0 0.00 0.00 0.00 78 1012.5
20260505072603 12 66 6.4 11.3 0.00 0.00 0.00 77 1012.5
20260505072104 12 349 1.6 12.9 0.00 0.00 0.00 79 1011.9
20260505071604 12 13 8.0 9.7 0.00 0.00 0.00 78 1012.2
20260505071104 12 51 1.6 8.0 0.00 0.00 0.00 79 1012.2
20260505070604 12 77 4.8 8.0 0.00 0.00 0.00 81 1012.2
20260505070103 12 57 1.6 8.0 0.00 0.00 0.00 81 1012.5
20260505065604 11 90 3.2 4.8 0.00 0.00 0.00 82 1012.5
20260505065104 11 98 3.2 11.3 0.00 0.00 0.00 82 1012.9
20260505064603 11 244 1.6 4.8 0.00 0.00 0.00 83 1012.2
20260505064103 11 114 1.6 9.7 0.00 0.00 0.00 83 1012.5
20260505063603 11 72 3.2 4.8 0.00 0.00 0.00 82 1012.9
20260505063104 11 76 1.6 4.8 0.00 0.00 0.00 84 1012.9
20260505062603 11 48 1.6 1.6 0.00 0.00 0.00 85 1012.9
20260505062104 11 75 1.6 3.2 0.00 0.00 0.00 85 1012.5
20260505061603 11 111 3.2 8.0 0.00 0.00 0.00 85 1012.5
20260505061103 11 63 3.2 4.8 0.00 0.00 0.00 86 1012.5
20260505060603 11 117 1.6 3.2 0.00 0.00 0.00 86 1012.5
20260505060103 11 121 1.6 3.2 0.00 0.00 0.00 87 1012.5
20260505055604 11 87 1.6 1.6 0.00 0.00 0.00 87 1012.5
20260505055103 11 76 1.6 1.6 0.00 0.00 0.00 88 1012.9
20260505054603 11 42 3.2 8.0 0.00 0.00 0.00 88 1012.5
20260505054103 10 345 0.0 3.2 0.00 0.00 0.00 88 1012.2
20260505053603 10 347 1.6 3.2 0.00 0.00 0.00 88 1012.5
20260505053104 10 342 3.2 8.0 0.00 0.00 0.00 87 1012.9
20260505052603 10 11 4.8 8.0 0.00 0.00 0.00 88 1012.5
20260505052103 10 18 1.6 8.0 0.00 0.00 0.00 87 1012.5
20260505051604 10 60 3.2 8.0 0.00 0.00 0.00 88 1012.5
20260505051103 10 343 4.8 8.0 0.00 0.00 0.00 87 1012.5
20260505050603 10 16 1.6 4.8 0.00 0.00 0.00 87 1012.9
20260505050104 10 25 1.6 3.2 0.00 0.00 0.00 87 1012.5
20260505041603 10 60 0.0 0.0 0.00 0.00 0.00 86 1012.9
20260505041104 10 60 0.0 0.0 0.00 0.00 0.00 86 1012.9
20260505040603 10 60 0.0 0.0 0.00 0.00 0.00 86 1012.9
20260505040104 10 59 3.2 3.2 0.00 0.00 0.00 86 1012.9
20260505035603 10 41 0.0 0.0 0.00 0.00 0.00 86 1012.9
20260505035103 10 41 0.0 1.6 0.00 0.00 0.00 86 1012.9
20260505034603 10 40 0.0 0.0 0.00 0.00 0.00 86 1012.9
20260505034104 10 45 1.6 1.6 0.00 0.00 0.00 86 1012.9
20260505033604 10 38 0.0 1.6 0.00 0.00 0.00 86 1012.9
20260505033104 10 28 0.0 1.6 0.00 0.00 0.00 86 1012.9
20260505032604 10 25 0.0 1.6 0.00 0.00 0.00 86 1012.9
20260505032103 10 36 0.0 3.2 0.00 0.00 0.00 86 1012.9
20260505031604 11 69 0.0 3.2 0.00 0.00 0.00 87 1012.9
20260505031104 11 61 3.2 4.8 0.00 0.00 0.00 87 1012.9
20260505030603 11 50 0.0 3.2 0.00 0.00 0.00 87 1012.9
20260505030105 11 164 0.0 1.6 0.00 0.00 0.00 87 1013.2
20260505025605 11 56 0.0 3.2 0.00 0.00 0.00 87 1012.9
20260505025103 11 48 0.0 1.6 0.00 0.00 0.00 87 1013.2
20260505024603 11 67 0.0 3.2 0.00 0.00 0.00 87 1013.2
20260505024105 11 39 1.6 4.8 0.00 0.00 0.00 87 1012.9
20260505023604 11 61 8.0 9.7 0.00 0.00 0.00 87 1012.9
20260505023105 11 79 3.2 3.2 0.00 0.00 0.00 87 1012.9
20260505022605 11 58 0.0 4.8 0.00 0.00 0.00 87 1012.9
20260505022103 11 53 0.0 4.8 0.00 0.00 0.00 86 1012.9
20260505021603 11 57 1.6 3.2 0.00 0.00 0.00 86 1012.9
20260505021105 11 47 1.6 1.6 0.00 0.00 0.00 86 1012.5
20260505020606 11 69 3.2 4.8 0.00 0.00 0.00 86 1012.9
20260505020103 11 45 1.6 1.6 0.00 0.00 0.00 86 1012.9
20260505015603 11 45 0.0 1.6 0.00 0.00 0.00 85 1013.2
20260505015103 11 29 0.0 1.6 0.00 0.00 0.00 85 1012.9
20260505014604 11 45 0.0 1.6 0.00 0.00 0.00 85 1012.9
20260505014103 11 68 1.6 3.2 0.00 0.00 0.00 85 1012.9
20260505013603 11 66 0.0 1.6 0.00 0.00 0.00 85 1012.9
20260505013104 11 64 1.6 1.6 0.00 0.00 0.00 85 1012.9
20260505012603 11 63 0.0 3.2 0.00 0.00 0.00 85 1013.2
20260505012103 11 66 1.6 3.2 0.00 0.00 0.00 85 1013.5
20260505011603 11 63 0.0 0.0 0.00 0.00 0.00 85 1013.5
20260505011104 11 66 1.6 3.2 0.00 0.00 0.00 85 1013.5
20260505010603 11 66 3.2 3.2 0.00 0.00 0.00 85 1013.5
20260505010105 11 58 0.0 1.6 0.00 0.00 0.00 85 1013.2
20260505005604 11 54 1.6 1.6 0.00 0.00 0.00 85 1013.5
20260505005105 12 210 0.0 1.6 0.00 0.00 0.00 85 1013.5
20260505004604 12 62 0.0 4.8 0.00 0.00 0.00 84 1013.5
20260505004104 12 184 3.2 4.8 0.00 0.00 0.00 84 1013.5
20260505003603 12 44 3.2 8.0 0.00 0.00 0.00 83 1013.5
20260505003103 12 50 3.2 8.0 0.00 0.00 0.00 82 1013.5
20260505002603 12 66 0.0 3.2 0.00 0.00 0.00 82 1013.2
20260505002103 12 55 0.0 1.6 0.00 0.00 0.00 82 1013.5
20260505001604 12 48 0.0 3.2 0.00 0.00 0.00 82 1013.5
20260505001103 12 41 0.0 3.2 0.00 0.00 0.00 82 1013.5
20260505000603 12 66 0.0 3.2 0.00 0.00 0.00 82 1013.5
20260505000103 12 32 1.6 4.8 0.00 0.00 0.00 82 1013.5
20260504235603 12 33 1.6 1.6 0.00 0.00 0.00 82 1013.9
20260504235103 12 66 0.0 4.8 0.00 0.00 0.00 82 1013.5
20260504234603 12 54 1.6 3.2 0.00 0.00 0.00 82 1013.5
20260504234105 12 44 4.8 4.8 0.00 0.00 0.00 82 1013.9
20260504233604 12 52 4.8 4.8 0.00 0.00 0.00 82 1013.5
20260504233103 12 53 0.0 3.2 0.00 0.00 0.00 83 1013.5
20260504232603 12 45 1.6 3.2 0.00 0.00 0.00 83 1013.5
20260504232103 12 32 1.6 3.2 0.00 0.00 0.00 83 1013.5
20260504231604 12 49 3.2 8.0 0.00 0.00 0.00 84 1013.9
20260504231105 12 43 0.0 8.0 0.00 0.00 0.00 84 1013.9
20260504230603 12 26 1.6 3.2 0.00 0.00 0.00 84 1013.9
20260504225603 12 43 0.0 0.0 0.00 0.00 0.00 84 1013.9
20260504225103 12 43 1.6 4.8 0.00 0.00 0.00 84 1013.9
20260504224603 12 67 0.0 1.6 0.00 0.00 0.00 84 1013.9
20260504224103 12 60 1.6 1.6 0.00 0.00 0.00 83 1013.9
20260504223604 12 62 0.0 1.6 0.00 0.00 0.00 83 1013.9
20260504223104 12 61 0.0 0.0 0.00 0.00 0.00 83 1013.9
20260504222603 12 61 0.0 0.0 0.00 0.00 0.00 82 1013.5
20260504222104 12 62 0.0 0.0 0.00 0.00 0.00 82 1013.9
20260504221605 12 61 0.0 0.0 0.00 0.00 0.00 82 1013.9
20260504221106 12 62 0.0 0.0 0.00 0.00 0.00 82 1013.9
20260504220603 12 62 0.0 0.0 0.00 0.00 0.00 82 1013.9
20260504215603 12 46 0.0 0.0 0.00 0.00 0.00 82 1013.5
20260504215103 12 46 0.0 0.0 0.00 0.00 0.00 82 1013.9
20260504214603 12 32 1.6 3.2 0.00 0.00 0.00 82 1013.9
20260504214103 12 52 1.6 1.6 0.00 0.00 0.00 82 1013.9
20260504213603 13 56 0.0 0.0 0.00 0.00 0.00 81 1013.9
20260504213104 13 58 1.6 3.2 0.00 0.00 0.00 81 1013.9
20260504212603 12 75 1.6 3.2 0.00 0.00 0.00 81 1014.2
20260504212104 12 49 4.8 8.0 0.00 0.00 0.00 82 1014.2
20260504211603 12 65 0.0 3.2 0.00 0.00 0.00 82 1013.9
20260504211103 12 40 0.0 1.6 0.00 0.00 0.00 82 1013.9
20260504210604 12 34 0.0 1.6 0.00 0.00 0.00 81 1013.9
20260504205604 12 52 0.0 0.0 0.00 0.00 0.00 81 1013.9
20260504205103 12 52 0.0 1.6 0.00 0.00 0.00 81 1013.9
20260504204603 12 60 1.6 3.2 0.00 0.00 0.00 81 1013.9
20260504204104 12 53 0.0 0.0 0.00 0.00 0.00 81 1013.9
20260504203603 12 41 0.0 3.2 0.00 0.00 0.00 81 1013.9
20260504203103 13 44 0.0 1.6 0.00 0.00 0.00 81 1013.9
20260504202603 13 49 0.0 1.6 0.00 0.00 0.00 80 1013.9
20260504202103 13 67 0.0 0.0 0.00 0.00 0.00 81 1013.9
20260504201608 13 52 0.0 1.6 0.00 0.00 0.00 81 1013.9
20260504201104 13 42 0.0 1.6 0.00 0.00 0.00 81 1013.9
20260504200603 13 45 0.0 1.6 0.00 0.00 0.00 81 1013.9
20260504195603 13 37 0.0 1.6 0.00 0.00 0.00 80 1013.9
20260504195104 13 77 1.6 3.2 0.00 0.00 0.00 80 1013.9
20260504194604 13 62 0.0 1.6 0.00 0.00 0.00 80 1013.9
20260504194103 13 66 1.6 3.2 0.00 0.00 0.00 80 1013.5
20260504193603 13 66 1.6 1.6 0.00 0.00 0.00 80 1013.5
20260504193111 13 87 1.6 3.2 0.00 0.00 0.00 80 1013.5
20260504192604 13 51 1.6 1.6 0.00 0.00 0.00 80 1013.5
20260504192105 13 75 3.2 8.0 0.00 0.00 0.00 79 1013.5
20260504191604 13 68 1.6 3.2 0.00 0.00 0.00 79 1013.5
20260504191103 13 21 1.6 3.2 0.00 0.00 0.00 79 1013.5
20260504190604 13 37 1.6 3.2 0.00 0.00 0.00 79 1013.5
20260504190108 13 50 1.6 4.8 0.00 0.00 0.00 78 1013.2
20260504185603 13 31 1.6 3.2 0.00 0.00 0.00 78 1013.2
20260504185104 13 45 1.6 4.8 0.00 0.00 0.00 78 1012.9
20260504184605 13 21 0.0 1.6 0.00 0.00 0.00 78 1013.2
20260504184103 13 22 1.6 3.2 0.00 0.00 0.00 78 1012.9
20260504183604 14 77 1.6 3.2 0.00 0.00 0.00 77 1013.2
20260504183104 14 20 0.0 4.8 0.00 0.00 0.00 77 1012.9
20260504182603 14 51 0.0 3.2 0.00 0.00 0.00 77 1013.2
20260504182103 14 81 4.8 8.0 0.00 0.00 0.00 77 1013.2
20260504181604 14 48 1.6 1.6 0.00 0.00 0.00 76 1012.9
20260504181103 14 54 1.6 3.2 0.00 0.00 0.00 76 1012.9
20260504180604 15 21 6.4 9.7 0.00 0.00 0.00 76 1012.9
20260504180103 15 140 3.2 9.7 0.00 0.00 0.00 75 1013.2
20260504175603 15 2 1.6 9.7 0.00 0.00 0.00 75 1013.2
20260504175104 15 2 4.8 11.3 0.00 0.00 0.00 75 1013.2
20260504174603 15 41 8.0 14.5 0.00 0.00 0.00 74 1013.2
20260504174103 15 132 8.0 11.3 0.00 0.00 0.00 74 1012.9
20260504173606 15 47 1.6 4.8 0.00 0.00 0.00 74 1012.9
20260504173103 15 87 4.8 8.0 0.00 0.00 0.00 74 1013.2
20260504172604 15 349 4.8 11.3 0.00 0.00 0.00 73 1012.9
20260504172104 15 17 4.8 9.7 0.00 0.00 0.00 73 1012.9
20260504171603 15 26 8.0 11.3 0.00 0.00 0.00 74 1013.2
20260504171104 15 108 4.8 9.7 0.00 0.00 0.00 74 1013.2
20260504170603 15 316 4.8 8.0 0.00 0.00 0.00 73 1012.9
20260504170104 15 343 14.5 17.7 0.00 0.00 0.00 73 1013.2